Terminal Aerodrome Forecast
Issued by NWS Bismarck, ND

Home | Current Version | Previous Version | Text Only | Print | Product List | Glossary On
Versions: 1 2 3 4 5 6 7 8 9 10 11 12 13 14 15 16 17 18 19 20 21 22 23 24 25 26 27 28 29 30 31 32 33 34 35 36 37 38 39 40 41 42 43 44 45 46 47 48 49
000
FTUS43 KBIS 182322
TAFISN
TAF
KISN 182322Z 1900/1924 34012KT P6SM SCT080
     FM190200 31009KT P6SM SCT180
     FM190900 19005KT P6SM SCT180
     FM191600 22010KT P6SM FEW250
     FM191800 24014G22KT P6SM FEW250
     FM192200 27017G25KT P6SM FEW250=

USA.gov is the U.S. government's official web portal to all federal, state and local government web resources and services.